Location: Bocianicha
(51.5066°N, 19.2563°E)
Time: 14:09:00
(UTC+00:00)

Cosmos 371 Rocket - Pass Details

Date: 15 June 2025
Orbit: 675 x 690 km, 74.0° (Epoch: 18 July)

Event Time Altitude Azimuth Distance (km) Brightness Sun altitude
Exits shadow 00:19:25 16° 224° (SW) 1,782 4.8 -12.3°
Maximum altitude 00:23:12 56° 300° (WNW) 826 3.7 -12.0°
Drops below altitude 10° 00:27:59 10° 18° (NNE) 2,154 7.4 -11.7°
Sets 00:30:21 0° 23° (NNE) 3,076 8.9 -11.6°
